Regional Weather Roundup
Issued by NWS Little Rock, AR

Home | Current Version | Previous Version | Text Only | Print | Product List | Glossary Off
Versions: 1 2 3 4 5 6 7 8 9 10 11 12 13 14 15 16 17 18 19 20 21 22 23 24 25 26 27 28 29 30 31

000
ASUS44 KLZK 251905
RWRLZK

WEATHER ROUNDUP FOR ARKANSAS
NATIONAL WEATHER SERVICE LITTLE ROCK AR
200 PM CDT THU MAY 25 2017

NOTE: "FAIR" INDICATES FEW OR NO CLOUDS BELOW 12,000 FEET WITH NO
SIGNIFICANT WEATHER AND/OR OBSTRUCTIONS TO VISIBILITY.

ARZ001-003-010-029-252000-
NORTHWEST ARKANSAS

CITY           SKY/WX    TMP DP  RH WIND       PRES   REMARKS
FAYETTEVILLE   SUNNY     75  54  47 S15       29.72F
FORT SMITH     SUNNY     81  52  36 SE8       29.70F
HARRISON       SUNNY     74  53  48 S10       29.75F
BENTONVILLE    SUNNY     75  52  43 S13       29.73S
ROGERS         SUNNY     77  52  41 S14G20    29.72F
SILOAM SPGS    SUNNY     75  54  46 S13G21    29.71S
HIGHFILL       SUNNY     77  53  43 S14       29.72F
$$

ARZ004-005-016-252000-
NORTH CENTRAL ARKANSAS

CITY           SKY/WX    TMP DP  RH WIND       PRES   REMARKS
BATESVILLE     SUNNY     75  50  41 SW7       29.78F
FLIPPIN        SUNNY     73  46  38 SE6       29.73F
MTN HOME       LGT RAIN  72  49  44 MISG      29.75F
$$

ARZ040-041-252000-
WEST CENTRAL ARKANSAS

CITY           SKY/WX    TMP DP  RH WIND       PRES   REMARKS
MENA           SUNNY     81  57  44 S5        29.76F
MOUNT IDA      SUNNY     78  50  37 VRB7      29.74F
$$

ARZ009-017-025-026-028-252000-
NORTHEAST ARKANSAS

CITY           SKY/WX    TMP DP  RH WIND       PRES   REMARKS
JONESBORO      SUNNY     76  50  40 W12G17    29.78F
WALNUT RIDGE   MOSUNNY   73  52  46 S6        29.78F
BLYTHEVILLE    SUNNY     73  53  49 W12G21    29.79S
NW BLYTHEVILLE MOSUNNY   73  52  46 W15G22    29.78F
$$

ARZ022-023-033-042-044-252000-
CENTRAL ARKANSAS

CITY           SKY/WX    TMP DP  RH WIND       PRES   REMARKS
LITTLE ROCK    SUNNY     77  54  44 SW9       29.78F
N LITTLE ROCK    N/A     76  54  46 S6        29.79F
JACKSONVILLE   SUNNY     77  55  45 CALM      29.77F
CONWAY           N/A     77  54  44 S12       29.76S
SEARCY         SUNNY     76  56  49 S9        29.80F
HOT SPRINGS    SUNNY     78  53  41 S10G20    29.78F
RUSSELLVILLE   SUNNY     78  54  43 VRB3      29.75F
CLINTON        FAIR      75  54  46 VRB5G13   29.77F
$$

ARZ036-252000-
EAST ARKANSAS

CITY           SKY/WX    TMP DP  RH WIND       PRES   REMARKS
WEST MEMPHIS   SUNNY     73  54  51 SW9       29.80F
$$

ARZ050-053-066-070-073-252000-
SOUTHWEST ARKANSAS

CITY           SKY/WX    TMP DP  RH WIND       PRES   REMARKS
ARKADELPHIA    FAIR      78  56  46 S13       29.78F
CAMDEN         SUNNY     81  54  39 S8        29.80F
TEXARKANA      SUNNY     79  58  48 S14       29.77S
EL DORADO      SUNNY     79  55  43 SW12G18   29.80F
DE QUEEN       SUNNY     81  58  45 VRB7      29.72F
$$

ARZ056-057-069-252000-
SOUTHEAST ARKANSAS

CITY           SKY/WX    TMP DP  RH WIND       PRES   REMARKS
PINE BLUFF     SUNNY     76  53  44 S13       29.80F
STUTTGART      SUNNY     75  48  38 S12       29.81F
MONTICELLO     SUNNY     77  52  41 SW9       29.82F

$$






USA.gov is the U.S. government's official web portal to all federal, state and local government web resources and services.